map of JUB home
Great Circle Mapper logo
JUB - Airport
Location
City:  Juba, Central Equatoria, South Sudan
Near (Alt.):Djouba
Name:Juba International Airport
ICAO:HSSJ
IATA:JUB

Details
Type:Airport (Aerodrome, Airfield)
Use:International (customs port of entry)
Latitude:452'19"N (4.872006)
Longitude:3136'04"E (31.601117)
Datum:WGS 1984
Elevation:1513 ft (461 m)
Variation:2.29E (WMM2015 magnetic declination)
0.08 annual change
Runways:1
Longest:7874 × 148 ft (2400 × 45 m), paved

Time
Time Zone:UTC+3
Local Time:

Weather
METAR:HSSJ 241500Z 36008KT 9999 SCT040 BKN150 24/19 Q1012
TAF:HSSJ 241000Z 2412/2518 34005KT 9999 SCT040 BKN140 PROB30
TEMPO 2412/2418 15006G16KT 8000 SHRA FEW045CB BKN090

Related Locations
Nearby:
Farthest:NHV: 11824 mi / 19028 km
Nuku Hiva, Marquesas Islands, PF

Find:

   beyond  
but within

Other Information
Maps:
NOTAMs:
Links:
Sources:

  
flag of South Sudan   

Sectional Chart

Flight Planning
at skyvector.com

Satellite Image

Google Maps Satellite view

 

Copyright © 2004-2016 Karl L. Swartz. All rights reserved.
The Great Circle Mapper name and logo are trademarks of the Great Circle Mapper.
All other trademarks mentioned herein belong to their respective owners.
Please see credits for attibutions and further copyright information.

  Follow gcmap on Facebook Follow gcmap on Twitter Follow gcmap on Google+ GCmap on LinkedIn

hCard Microformat

Geo Microformat